Time,TemperatureF,DewpointF,PressureIn,WindDirection,WindDirectionDegrees,WindSpeedMPH,WindSpeedGustMPH,Humidity,HourlyPrecipIn,Conditions,Clouds,dailyrainin,SolarRadiationWatts/m^2,SoftwareType,DateUTC
2013-09-14 00:04:00,60.2,55.3,29.71,WNW,285,5.0,14.0,84,0.00,,,0.00,88,Wunderground v.1.15,2013-09-14 06:04:00,
2013-09-14 00:10:00,60.0,55.5,29.71,WNW,285,4.0,14.0,85,0.00,,,0.00,86,Wunderground v.1.15,2013-09-14 06:10:00,
2013-09-14 00:18:00,59.8,55.0,29.72,WNW,285,3.0,14.0,84,0.00,,,0.00,84,Wunderground v.1.15,2013-09-14 06:18:00,
2013-09-14 00:24:00,59.7,54.9,29.70,WNW,285,3.0,14.0,84,0.00,,,0.00,84,Wunderground v.1.15,2013-09-14 06:24:00,
2013-09-14 00:30:00,59.6,55.4,29.70,WNW,285,3.0,14.0,86,0.00,,,0.00,83,Wunderground v.1.15,2013-09-14 06:30:00,
2013-09-14 00:36:00,59.5,55.3,29.72,WNW,285,4.0,14.0,86,0.00,,,0.00,83,Wunderground v.1.15,2013-09-14 06:36:00,
2013-09-14 00:42:00,59.6,55.4,29.70,WNW,285,4.0,14.0,86,0.00,,,0.00,84,Wunderground v.1.15,2013-09-14 06:42:00,
2013-09-14 00:48:00,59.6,55.4,29.72,WNW,285,4.0,14.0,86,0.00,,,0.00,84,Wunderground v.1.15,2013-09-14 06:48:00,
2013-09-14 00:54:00,59.5,55.0,29.70,WNW,285,5.0,14.0,85,0.00,,,0.00,84,Wunderground v.1.15,2013-09-14 06:54:00,
2013-09-14 01:00:00,59.5,55.3,29.72,WNW,285,5.0,5.0,86,0.00,,,0.00,84,Wunderground v.1.15,2013-09-14 07:00:00,
2013-09-14 01:06:00,59.4,55.2,29.72,WNW,285,3.0,14.0,86,0.00,,,0.00,84,Wunderground v.1.15,2013-09-14 07:06:00,
2013-09-14 01:12:00,59.3,55.1,29.70,WNW,285,2.0,14.0,86,0.00,,,0.00,83,Wunderground v.1.15,2013-09-14 07:12:00,
2013-09-14 01:18:00,59.1,54.9,29.72,WNW,285,0.0,14.0,86,0.00,,,0.00,83,Wunderground v.1.15,2013-09-14 07:18:00,
2013-09-14 01:24:00,59.0,54.8,29.71,WNW,285,0.0,14.0,86,0.00,,,0.00,83,Wunderground v.1.15,2013-09-14 07:24:00,
2013-09-14 01:30:00,59.0,55.1,29.72,WNW,285,0.0,14.0,87,0.00,,,0.00,81,Wunderground v.1.15,2013-09-14 07:30:00,
2013-09-14 01:36:00,59.0,55.1,29.72,WNW,285,0.0,14.0,87,0.00,,,0.00,81,Wunderground v.1.15,2013-09-14 07:36:00,
2013-09-14 01:42:00,59.1,55.2,29.71,WNW,285,1.0,14.0,87,0.00,,,0.00,83,Wunderground v.1.15,2013-09-14 07:42:00,
2013-09-14 01:48:00,59.3,55.4,29.72,NE,52,2.0,14.0,87,0.00,,,0.00,83,Wunderground v.1.15,2013-09-14 07:48:00,
2013-09-14 01:54:00,59.5,55.6,29.71,NE,52,4.0,14.0,87,0.00,,,0.00,84,Wunderground v.1.15,2013-09-14 07:54:00,
2013-09-14 02:00:00,59.5,55.6,29.72,NE,52,4.0,4.0,87,0.00,,,0.00,84,Wunderground v.1.15,2013-09-14 08:00:00,
2013-09-14 02:06:00,59.5,55.3,29.72,NE,52,2.0,4.0,86,0.00,,,0.00,84,Wunderground v.1.15,2013-09-14 08:06:00,
2013-09-14 02:12:00,59.6,55.4,29.71,NE,52,0.0,4.0,86,0.00,,,0.00,84,Wunderground v.1.15,2013-09-14 08:12:00,
2013-09-14 02:18:00,59.6,55.4,29.72,ENE,76,2.0,4.0,86,0.00,,,0.00,84,Wunderground v.1.15,2013-09-14 08:18:00,
2013-09-14 02:24:00,59.5,55.3,29.71,ENE,76,3.0,4.0,86,0.00,,,0.00,84,Wunderground v.1.15,2013-09-14 08:24:00,
2013-09-14 02:32:00,59.5,55.3,29.73,ENE,76,1.0,4.0,86,0.00,,,0.00,84,Wunderground v.1.15,2013-09-14 08:32:00,
2013-09-14 02:38:00,59.5,55.3,29.73,ENE,76,0.0,4.0,86,0.00,,,0.00,84,Wunderground v.1.15,2013-09-14 08:38:00,
2013-09-14 02:44:00,59.4,55.2,29.71,ENE,76,0.0,4.0,86,0.00,,,0.00,84,Wunderground v.1.15,2013-09-14 08:44:00,
2013-09-14 02:50:00,59.4,55.2,29.73,ENE,76,0.0,4.0,86,0.00,,,0.00,84,Wunderground v.1.15,2013-09-14 08:50:00,
2013-09-14 02:56:00,59.4,55.2,29.72,ENE,76,0.0,4.0,86,0.00,,,0.00,83,Wunderground v.1.15,2013-09-14 08:56:00,
2013-09-14 03:02:00,59.4,55.2,29.73,ENE,76,0.0,4.0,86,0.00,,,0.00,83,Wunderground v.1.15,2013-09-14 09:02:00,
2013-09-14 03:08:00,59.4,55.2,29.74,ENE,76,0.0,4.0,86,0.00,,,0.00,83,Wunderground v.1.15,2013-09-14 09:08:00,
2013-09-14 03:14:00,59.3,54.8,29.72,ENE,76,0.0,4.0,85,0.00,,,0.00,83,Wunderground v.1.15,2013-09-14 09:14:00,
2013-09-14 03:20:00,59.3,54.5,29.74,ENE,75,1.0,4.0,84,0.00,,,0.00,83,Wunderground v.1.15,2013-09-14 09:20:00,
2013-09-14 03:26:00,59.2,55.0,29.74,North,1,3.0,5.0,86,0.00,,,0.00,83,Wunderground v.1.15,2013-09-14 09:26:00,
2013-09-14 03:36:00,58.9,55.7,29.74,NNW,348,4.0,4.0,89,0.00,,,0.00,83,Wunderground v.1.15,2013-09-14 09:36:00,
2013-09-14 03:42:00,58.7,55.5,29.74,NNW,348,3.0,4.0,89,0.00,,,0.00,83,Wunderground v.1.15,2013-09-14 09:42:00,
2013-09-14 03:48:00,58.6,55.4,29.73,NNW,348,1.0,4.0,89,0.00,,,0.00,81,Wunderground v.1.15,2013-09-14 09:48:00,
2013-09-14 04:00:00,58.1,55.5,29.75,NNW,348,2.0,4.0,91,0.00,,,0.00,79,Wunderground v.1.15,2013-09-14 10:00:00,
2013-09-14 04:06:00,58.0,55.4,29.75,NNW,348,2.0,4.0,91,0.00,,,0.00,79,Wunderground v.1.15,2013-09-14 10:06:00,
2013-09-14 04:12:00,58.0,55.4,29.75,NNW,348,2.0,4.0,91,0.00,,,0.00,79,Wunderground v.1.15,2013-09-14 10:12:00,
2013-09-14 04:18:00,58.0,55.4,29.74,NW,318,3.0,4.0,91,0.00,,,0.00,79,Wunderground v.1.15,2013-09-14 10:18:00,
2013-09-14 04:24:00,57.8,54.9,29.75,NW,318,3.0,4.0,90,0.00,,,0.00,79,Wunderground v.1.15,2013-09-14 10:24:00,
2013-09-14 04:30:00,57.4,54.8,29.75,NW,318,3.0,4.0,91,0.00,,,0.00,77,Wunderground v.1.15,2013-09-14 10:30:00,
2013-09-14 04:36:00,57.2,54.6,29.74,NW,318,3.0,4.0,91,0.00,,,0.00,76,Wunderground v.1.15,2013-09-14 10:36:00,
2013-09-14 04:42:00,57.1,54.5,29.75,NW,318,3.0,4.0,91,0.00,,,0.00,76,Wunderground v.1.15,2013-09-14 10:42:00,
2013-09-14 04:48:00,57.1,54.5,29.75,NW,318,3.0,4.0,91,0.00,,,0.00,76,Wunderground v.1.15,2013-09-14 10:48:00,
2013-09-14 04:56:00,57.1,54.2,29.75,NW,318,2.0,4.0,90,0.00,,,0.00,76,Wunderground v.1.15,2013-09-14 10:56:00,
2013-09-14 05:02:00,57.1,54.2,29.75,NW,318,1.0,4.0,90,0.00,,,0.00,76,Wunderground v.1.15,2013-09-14 11:02:00,
2013-09-14 05:08:00,57.1,53.9,29.76,NW,318,0.0,4.0,89,0.00,,,0.00,74,Wunderground v.1.15,2013-09-14 11:08:00,
2013-09-14 05:14:00,57.1,53.9,29.76,NW,318,0.0,4.0,89,0.00,,,0.00,74,Wunderground v.1.15,2013-09-14 11:14:00,
2013-09-14 05:22:00,57.2,54.0,29.76,NW,318,0.0,4.0,89,0.00,,,0.00,72,Wunderground v.1.15,2013-09-14 11:22:00,
2013-09-14 05:28:00,57.3,54.4,29.76,NW,318,0.0,4.0,90,0.00,,,0.00,72,Wunderground v.1.15,2013-09-14 11:28:00,
2013-09-14 05:34:00,57.5,54.6,29.76,North,7,0.0,4.0,90,0.00,,,0.00,74,Wunderground v.1.15,2013-09-14 11:34:00,
2013-09-14 05:40:00,57.9,55.0,29.76,East,82,2.0,4.0,90,0.00,,,0.00,76,Wunderground v.1.15,2013-09-14 11:40:00,
2013-09-14 05:46:00,57.7,54.8,29.77,East,98,3.0,4.0,90,0.00,,,0.00,76,Wunderground v.1.15,2013-09-14 11:46:00,
2013-09-14 05:52:00,57.6,55.0,29.77,East,98,3.0,4.0,91,0.00,,,0.00,76,Wunderground v.1.15,2013-09-14 11:52:00,
2013-09-14 05:58:00,57.5,54.6,29.77,East,98,2.0,4.0,90,0.00,,,0.00,76,Wunderground v.1.15,2013-09-14 11:58:00,
2013-09-14 06:12:00,57.2,54.3,29.77,East,98,1.0,6.0,90,0.00,,,0.00,74,Wunderground v.1.15,2013-09-14 12:12:00,
2013-09-14 06:18:00,56.8,53.9,29.77,East,98,3.0,6.0,90,0.00,,,0.00,74,Wunderground v.1.15,2013-09-14 12:18:00,
2013-09-14 06:24:00,56.7,54.1,29.78,East,98,4.0,6.0,91,0.00,,,0.00,74,Wunderground v.1.15,2013-09-14 12:24:00,
2013-09-14 06:30:00,56.7,54.1,29.78,East,98,2.0,6.0,91,0.00,,,0.00,74,Wunderground v.1.15,2013-09-14 12:30:00,
2013-09-14 06:36:00,56.7,54.1,29.78,East,98,1.0,6.0,91,0.00,,,0.00,74,Wunderground v.1.15,2013-09-14 12:36:00,
2013-09-14 06:42:00,56.7,54.1,29.78,East,98,0.0,6.0,91,0.00,,,0.00,72,Wunderground v.1.15,2013-09-14 12:42:00,
2013-09-14 06:56:00,56.7,54.4,29.78,East,99,3.0,6.0,92,0.00,,,0.00,70,Wunderground v.1.15,2013-09-14 12:56:00,
2013-09-14 07:02:00,56.6,54.0,29.78,East,98,4.0,6.0,91,0.00,,,0.00,69,Wunderground v.1.15,2013-09-14 13:02:00,
2013-09-14 07:08:00,56.1,53.2,29.77,East,95,5.0,6.0,90,0.00,,,0.00,65,Wunderground v.1.15,2013-09-14 13:08:00,
2013-09-14 07:14:00,55.7,53.1,29.78,East,95,4.0,6.0,91,0.00,,,0.00,107,Wunderground v.1.15,2013-09-14 13:14:00,
2013-09-14 07:20:00,55.7,53.4,29.79,East,95,3.0,6.0,92,0.00,,,0.00,88,Wunderground v.1.15,2013-09-14 13:20:00,
2013-09-14 07:26:00,55.7,53.4,29.79,East,95,2.0,6.0,92,0.00,,,0.00,60,Wunderground v.1.15,2013-09-14 13:26:00,
2013-09-14 07:32:00,55.8,53.5,29.79,East,95,1.0,2.0,92,0.00,,,0.00,14,Wunderground v.1.15,2013-09-14 13:32:00,
2013-09-14 07:38:00,55.7,53.1,29.80,East,95,1.0,6.0,91,0.00,,,0.00,0,Wunderground v.1.15,2013-09-14 13:38:00,
2013-09-14 07:44:00,55.8,53.2,29.80,East,94,2.0,6.0,91,0.00,,,0.00,0,Wunderground v.1.15,2013-09-14 13:44:00,
2013-09-14 07:50:00,55.9,53.3,29.78,East,94,1.0,6.0,91,0.00,,,0.00,0,Wunderground v.1.15,2013-09-14 13:50:00,
2013-09-14 07:56:00,56.1,53.2,29.80,East,94,1.0,6.0,90,0.00,,,0.00,0,Wunderground v.1.15,2013-09-14 13:56:00,
2013-09-14 08:02:00,56.2,53.0,29.80,East,94,0.0,6.0,89,0.00,,,0.00,0,Wunderground v.1.15,2013-09-14 14:02:00,
2013-09-14 08:12:00,56.5,53.6,29.79,East,94,0.0,6.0,90,0.00,,,0.00,0,Wunderground v.1.15,2013-09-14 14:12:00,
2013-09-14 08:20:00,56.8,54.2,29.81,East,94,1.0,6.0,91,0.00,,,0.00,0,Wunderground v.1.15,2013-09-14 14:20:00,
2013-09-14 08:28:00,57.1,54.5,29.81,East,94,1.0,6.0,91,0.00,,,0.00,0,Wunderground v.1.15,2013-09-14 14:28:00,
2013-09-14 08:34:00,57.2,54.6,29.80,East,94,1.0,6.0,91,0.00,,,0.00,0,Wunderground v.1.15,2013-09-14 14:34:00,
2013-09-14 08:44:00,57.5,54.9,29.81,East,94,1.0,6.0,91,0.00,,,0.00,0,Wunderground v.1.15,2013-09-14 14:44:00,
2013-09-14 08:50:00,57.6,55.0,29.81,East,94,1.0,1.0,91,0.00,,,0.00,0,Wunderground v.1.15,2013-09-14 14:50:00,
2013-09-14 08:56:00,57.7,55.1,29.81,East,94,0.0,6.0,91,0.00,,,0.00,0,Wunderground v.1.15,2013-09-14 14:56:00,
2013-09-14 09:02:00,57.8,55.2,29.82,NNW,347,0.0,6.0,91,0.00,,,0.00,0,Wunderground v.1.15,2013-09-14 15:02:00,
2013-09-14 09:08:00,57.8,55.2,29.82,NW,325,1.0,6.0,91,0.00,,,0.00,0,Wunderground v.1.15,2013-09-14 15:08:00,
2013-09-14 09:14:00,57.5,54.6,29.83,NW,325,3.0,6.0,90,0.00,,,0.00,0,Wunderground v.1.15,2013-09-14 15:14:00,
2013-09-14 09:20:00,57.3,54.4,29.83,NW,325,2.0,2.0,90,0.00,,,0.00,0,Wunderground v.1.15,2013-09-14 15:20:00,
2013-09-14 09:28:00,57.1,54.2,29.83,NW,325,1.0,6.0,90,0.00,,,0.00,0,Wunderground v.1.15,2013-09-14 15:28:00,
2013-09-14 09:34:00,57.1,54.5,29.83,NW,325,2.0,6.0,91,0.00,,,0.00,0,Wunderground v.1.15,2013-09-14 15:34:00,
2013-09-14 09:40:00,57.1,54.5,29.83,NW,325,3.0,3.0,91,0.00,,,0.00,0,Wunderground v.1.15,2013-09-14 15:40:00,
2013-09-14 09:46:00,57.1,54.5,29.84,NW,325,1.0,6.0,91,0.00,,,0.00,0,Wunderground v.1.15,2013-09-14 15:46:00,
2013-09-14 09:54:00,57.3,54.7,29.84,NW,325,0.0,6.0,91,0.00,,,0.00,0,Wunderground v.1.15,2013-09-14 15:54:00,
2013-09-14 10:00:00,57.4,55.1,29.83,NW,325,0.0,6.0,92,0.00,,,0.00,0,Wunderground v.1.15,2013-09-14 16:00:00,
2013-09-14 10:06:00,57.7,55.1,29.85,NW,325,1.0,6.0,91,0.00,,,0.00,0,Wunderground v.1.15,2013-09-14 16:06:00,
2013-09-14 10:12:00,58.0,55.4,29.85,NW,326,1.0,6.0,91,0.00,,,0.00,0,Wunderground v.1.15,2013-09-14 16:12:00,
2013-09-14 10:18:00,58.3,55.4,29.83,NW,326,1.0,6.0,90,0.00,,,0.00,0,Wunderground v.1.15,2013-09-14 16:18:00,
2013-09-14 10:24:00,58.8,55.6,29.85,NW,326,1.0,6.0,89,0.00,,,0.00,0,Wunderground v.1.15,2013-09-14 16:24:00,
2013-09-14 10:30:00,59.4,55.2,29.85,NW,326,1.0,6.0,86,0.00,,,0.00,0,Wunderground v.1.15,2013-09-14 16:30:00,
2013-09-14 10:36:00,60.1,55.2,29.84,ENE,66,2.0,6.0,84,0.00,,,0.00,0,Wunderground v.1.15,2013-09-14 16:36:00,
2013-09-14 10:42:00,60.5,55.0,29.86,ENE,66,2.0,6.0,82,0.00,,,0.00,0,Wunderground v.1.15,2013-09-14 16:42:00,
2013-09-14 10:48:00,60.9,55.0,29.84,ENE,66,2.0,6.0,81,0.00,,,0.00,0,Wunderground v.1.15,2013-09-14 16:48:00,
2013-09-14 10:54:00,61.4,55.2,29.84,ENE,66,1.0,6.0,80,0.00,,,0.00,0,Wunderground v.1.15,2013-09-14 16:54:00,
2013-09-14 11:00:00,62.0,55.4,29.84,ENE,65,1.0,4.0,79,0.00,,,0.00,0,Wunderground v.1.15,2013-09-14 17:00:00,
2013-09-14 11:06:00,62.6,55.6,29.84,ENE,65,1.0,4.0,78,0.00,,,0.00,0,Wunderground v.1.15,2013-09-14 17:06:00,
2013-09-14 11:12:00,62.9,55.2,29.84,ENE,65,1.0,4.0,76,0.00,,,0.00,0,Wunderground v.1.15,2013-09-14 17:12:00,
2013-09-14 11:18:00,63.4,55.7,29.84,North,2,1.0,4.0,76,0.00,,,0.00,0,Wunderground v.1.15,2013-09-14 17:18:00,
2013-09-14 11:24:00,63.9,54.7,29.85,NNW,328,2.0,4.0,72,0.00,,,0.00,0,Wunderground v.1.15,2013-09-14 17:24:00,
2013-09-14 11:30:00,64.5,54.5,29.85,NNW,339,2.0,4.0,70,0.00,,,0.00,0,Wunderground v.1.15,2013-09-14 17:30:00,
2013-09-14 11:36:00,65.1,54.7,29.84,NNW,339,1.0,4.0,69,0.00,,,0.00,0,Wunderground v.1.15,2013-09-14 17:36:00,
2013-09-14 11:42:00,65.6,55.2,29.85,WNW,299,1.0,7.0,69,0.00,,,0.00,0,Wunderground v.1.15,2013-09-14 17:42:00,
2013-09-14 11:48:00,65.6,54.3,29.85,West,264,4.0,12.0,67,0.00,,,0.00,0,Wunderground v.1.15,2013-09-14 17:48:00,
2013-09-14 11:56:00,65.5,52.6,29.85,WSW,249,9.0,11.0,63,0.00,,,0.00,0,Wunderground v.1.15,2013-09-14 17:56:00,
2013-09-14 12:02:00,65.4,52.5,29.85,West,275,10.0,11.0,63,0.00,,,0.00,0,Wunderground v.1.15,2013-09-14 18:02:00,
2013-09-14 12:08:00,65.6,52.2,29.85,West,269,10.0,12.0,62,0.00,,,0.00,0,Wunderground v.1.15,2013-09-14 18:08:00,
2013-09-14 12:14:00,65.8,52.9,29.85,WSW,251,10.0,13.0,63,0.00,,,0.00,0,Wunderground v.1.15,2013-09-14 18:14:00,
2013-09-14 12:20:00,65.9,52.1,29.85,WSW,255,11.0,12.0,61,0.00,,,0.00,0,Wunderground v.1.15,2013-09-14 18:20:00,
2013-09-14 12:26:00,66.0,52.6,29.85,West,262,10.0,12.0,62,0.00,,,0.00,0,Wunderground v.1.15,2013-09-14 18:26:00,
2013-09-14 12:32:00,66.2,52.3,29.85,West,280,8.0,10.0,61,0.00,,,0.00,0,Wunderground v.1.15,2013-09-14 18:32:00,
2013-09-14 12:38:00,66.5,52.6,29.85,West,260,8.0,12.0,61,0.00,,,0.00,0,Wunderground v.1.15,2013-09-14 18:38:00,
2013-09-14 12:44:00,66.9,52.6,29.85,West,267,11.0,11.0,60,0.00,,,0.00,0,Wunderground v.1.15,2013-09-14 18:44:00,
2013-09-14 12:50:00,67.3,51.5,29.85,West,270,13.0,13.0,57,0.00,,,0.00,0,Wunderground v.1.15,2013-09-14 18:50:00,
2013-09-14 12:56:00,67.6,50.9,29.84,WNW,290,14.0,17.0,55,0.00,,,0.00,0,Wunderground v.1.15,2013-09-14 18:56:00,
2013-09-14 13:02:00,67.8,51.0,29.84,West,275,15.0,15.0,55,0.00,,,0.00,0,Wunderground v.1.15,2013-09-14 19:02:00,
2013-09-14 13:08:00,67.7,51.4,29.84,West,261,15.0,20.0,56,0.00,,,0.00,0,Wunderground v.1.15,2013-09-14 19:08:00,
2013-09-14 13:20:00,68.1,50.8,29.84,WSW,258,19.0,22.0,54,0.00,,,0.00,0,Wunderground v.1.15,2013-09-14 19:20:00,
2013-09-14 13:26:00,68.1,50.8,29.84,West,260,21.0,24.0,54,0.00,,,0.00,0,Wunderground v.1.15,2013-09-14 19:26:00,
2013-09-14 13:32:00,68.1,51.3,29.84,WSW,251,20.0,23.0,55,0.00,,,0.00,0,Wunderground v.1.15,2013-09-14 19:32:00,
2013-09-14 13:38:00,68.4,52.6,29.84,WSW,257,19.0,23.0,57,0.00,,,0.00,0,Wunderground v.1.15,2013-09-14 19:38:00,
2013-09-14 13:44:00,68.5,51.7,29.84,West,268,23.0,29.0,55,0.00,,,0.00,0,Wunderground v.1.15,2013-09-14 19:44:00,
2013-09-14 13:50:00,68.7,50.9,29.84,West,275,25.0,25.0,53,0.00,,,0.00,0,Wunderground v.1.15,2013-09-14 19:50:00,
2013-09-14 13:56:00,68.8,50.5,29.83,WSW,253,24.0,25.0,52,0.00,,,0.00,0,Wunderground v.1.15,2013-09-14 19:56:00,
2013-09-14 14:02:00,68.8,52.5,29.84,WNW,285,25.0,27.0,56,0.00,,,0.00,0,Wunderground v.1.15,2013-09-14 20:02:00,
2013-09-14 14:08:00,68.8,51.0,29.83,West,275,26.0,27.0,53,0.00,,,0.00,0,Wunderground v.1.15,2013-09-14 20:08:00,
2013-09-14 14:14:00,68.9,52.1,29.83,West,261,27.0,28.0,55,0.00,,,0.00,0,Wunderground v.1.15,2013-09-14 20:14:00,
2013-09-14 14:20:00,69.2,51.3,29.83,WNW,285,25.0,26.0,53,0.00,,,0.00,0,Wunderground v.1.15,2013-09-14 20:20:00,
2013-09-14 14:26:00,69.4,50.5,29.83,WNW,285,25.0,26.0,51,0.00,,,0.00,0,Wunderground v.1.15,2013-09-14 20:26:00,
2013-09-14 14:32:00,69.5,52.6,29.83,West,263,25.0,26.0,55,0.00,,,0.00,0,Wunderground v.1.15,2013-09-14 20:32:00,
2013-09-14 14:38:00,69.7,49.7,29.83,West,275,23.0,26.0,49,0.00,,,0.00,0,Wunderground v.1.15,2013-09-14 20:38:00,
2013-09-14 14:44:00,69.9,51.5,29.83,West,275,22.0,25.0,52,0.00,,,0.00,0,Wunderground v.1.15,2013-09-14 20:44:00,
2013-09-14 14:52:00,70.1,48.9,29.82,West,275,22.0,22.0,47,0.00,,,0.00,0,Wunderground v.1.15,2013-09-14 20:52:00,
2013-09-14 14:58:00,70.1,50.0,29.83,West,266,21.0,22.0,49,0.00,,,0.00,0,Wunderground v.1.15,2013-09-14 20:58:00,
2013-09-14 15:04:00,70.2,49.6,29.83,West,275,21.0,32.0,48,0.00,,,0.00,0,Wunderground v.1.15,2013-09-14 21:04:00,
2013-09-14 15:10:00,70.1,49.5,29.83,WNW,285,21.0,21.0,48,0.00,,,0.00,0,Wunderground v.1.15,2013-09-14 21:10:00,
2013-09-14 15:16:00,70.1,49.5,29.83,West,270,20.0,32.0,48,0.00,,,0.00,0,Wunderground v.1.15,2013-09-14 21:16:00,
2013-09-14 15:22:00,70.5,51.0,29.83,West,275,20.0,21.0,50,0.00,,,0.00,0,Wunderground v.1.15,2013-09-14 21:22:00,
2013-09-14 15:28:00,70.4,49.8,29.83,WSW,252,19.0,32.0,48,0.00,,,0.00,0,Wunderground v.1.15,2013-09-14 21:28:00,
2013-09-14 15:34:00,70.4,50.3,29.83,WSW,252,20.0,32.0,49,0.00,,,0.00,0,Wunderground v.1.15,2013-09-14 21:34:00,
2013-09-14 15:40:00,70.3,47.9,29.83,WSW,258,19.0,19.0,45,0.00,,,0.00,0,Wunderground v.1.15,2013-09-14 21:40:00,
2013-09-14 15:46:00,70.3,49.1,29.83,West,259,19.0,32.0,47,0.00,,,0.00,0,Wunderground v.1.15,2013-09-14 21:46:00,
2013-09-14 15:52:00,70.3,48.5,29.83,WSW,249,20.0,32.0,46,0.00,,,0.00,0,Wunderground v.1.15,2013-09-14 21:52:00,
2013-09-14 15:58:00,70.2,46.0,29.83,WSW,255,21.0,32.0,42,0.00,,,0.00,0,Wunderground v.1.15,2013-09-14 21:58:00,
2013-09-14 16:04:00,70.4,50.9,29.83,West,262,22.0,32.0,50,0.00,,,0.00,0,Wunderground v.1.15,2013-09-14 22:04:00,
2013-09-14 16:10:00,70.4,48.0,29.83,West,268,22.0,22.0,45,0.00,,,0.00,0,Wunderground v.1.15,2013-09-14 22:10:00,
2013-09-14 16:16:00,70.6,48.2,29.83,West,264,22.0,32.0,45,0.00,,,0.00,0,Wunderground v.1.15,2013-09-14 22:16:00,
2013-09-14 16:22:00,70.6,47.6,29.82,West,266,22.0,32.0,44,0.00,,,0.00,0,Wunderground v.1.15,2013-09-14 22:22:00,
2013-09-14 16:28:00,70.6,46.4,29.83,WSW,256,24.0,32.0,42,0.00,,,0.00,0,Wunderground v.1.15,2013-09-14 22:28:00,
2013-09-14 16:34:00,70.6,47.0,29.83,West,266,24.0,32.0,43,0.00,,,0.00,0,Wunderground v.1.15,2013-09-14 22:34:00,
2013-09-14 16:40:00,70.7,46.5,29.83,West,264,23.0,23.0,42,0.00,,,0.00,0,Wunderground v.1.15,2013-09-14 22:40:00,
2013-09-14 16:46:00,70.6,48.8,29.83,WSW,256,23.0,32.0,46,0.00,,,0.00,0,Wunderground v.1.15,2013-09-14 22:46:00,
2013-09-14 16:52:00,70.7,45.8,29.82,West,270,22.0,32.0,41,0.00,,,0.00,0,Wunderground v.1.15,2013-09-14 22:52:00,
2013-09-14 16:58:00,70.7,48.3,29.82,West,264,23.0,32.0,45,0.00,,,0.00,0,Wunderground v.1.15,2013-09-14 22:58:00,
2013-09-14 17:04:00,70.7,46.5,29.82,West,266,22.0,32.0,42,0.00,,,0.00,0,Wunderground v.1.15,2013-09-14 23:04:00,
2013-09-14 17:10:00,70.7,46.5,29.82,WSW,251,22.0,22.0,42,0.00,,,0.00,0,Wunderground v.1.15,2013-09-14 23:10:00,
2013-09-14 17:16:00,70.5,49.3,29.82,WSW,245,23.0,32.0,47,0.00,,,0.00,0,Wunderground v.1.15,2013-09-14 23:16:00,
2013-09-14 17:22:00,70.6,48.8,29.82,WSW,256,23.0,32.0,46,0.00,,,0.00,0,Wunderground v.1.15,2013-09-14 23:22:00,
2013-09-14 17:28:00,70.5,48.1,29.82,West,261,23.0,32.0,45,0.00,,,0.00,0,Wunderground v.1.15,2013-09-14 23:28:00,
2013-09-14 17:34:00,70.5,48.1,29.82,West,265,24.0,32.0,45,0.00,,,0.00,0,Wunderground v.1.15,2013-09-14 23:34:00,
2013-09-14 17:40:00,70.2,48.4,29.82,West,264,24.0,32.0,46,0.00,,,0.00,0,Wunderground v.1.15,2013-09-14 23:40:00,
2013-09-14 17:46:00,70.0,48.8,29.82,West,260,24.0,32.0,47,0.00,,,0.00,0,Wunderground v.1.15,2013-09-14 23:46:00,
2013-09-14 17:52:00,69.9,48.2,29.82,West,262,22.0,32.0,46,0.00,,,0.00,0,Wunderground v.1.15,2013-09-14 23:52:00,
2013-09-14 17:58:00,69.8,48.1,29.82,WSW,244,23.0,32.0,46,0.00,,,0.00,0,Wunderground v.1.15,2013-09-14 23:58:00,
2013-09-14 18:04:00,69.7,49.7,29.82,WSW,256,23.0,32.0,49,0.00,,,0.00,0,Wunderground v.1.15,2013-09-15 00:04:00,
2013-09-14 18:10:00,69.5,47.8,29.83,WSW,248,23.0,23.0,46,0.00,,,0.00,0,Wunderground v.1.15,2013-09-15 00:10:00,
2013-09-14 18:16:00,69.4,49.4,29.82,WSW,247,23.0,32.0,49,0.00,,,0.00,0,Wunderground v.1.15,2013-09-15 00:16:00,
2013-09-14 18:22:00,69.4,49.4,29.82,West,261,23.0,32.0,49,0.00,,,0.00,0,Wunderground v.1.15,2013-09-15 00:22:00,
2013-09-14 18:28:00,69.3,48.2,29.82,West,263,23.0,32.0,47,0.00,,,0.00,0,Wunderground v.1.15,2013-09-15 00:28:00,
2013-09-14 18:34:00,69.2,48.7,29.82,WSW,257,23.0,32.0,48,0.00,,,0.00,0,Wunderground v.1.15,2013-09-15 00:34:00,
2013-09-14 18:40:00,69.1,49.1,29.83,West,267,22.0,32.0,49,0.00,,,0.00,0,Wunderground v.1.15,2013-09-15 00:40:00,
2013-09-14 18:50:00,68.8,49.4,29.82,West,263,22.0,32.0,50,0.00,,,0.00,0,Wunderground v.1.15,2013-09-15 00:50:00,
2013-09-14 18:56:00,68.5,49.7,29.82,West,263,22.0,32.0,51,0.00,,,0.00,0,Wunderground v.1.15,2013-09-15 00:56:00,
2013-09-14 19:06:00,68.4,50.1,29.82,West,264,22.0,32.0,52,0.00,,,0.00,0,Wunderground v.1.15,2013-09-15 01:06:00,
2013-09-14 19:12:00,68.0,51.2,29.82,West,264,22.0,32.0,55,0.00,,,0.00,0,Wunderground v.1.15,2013-09-15 01:12:00,
2013-09-14 19:18:00,67.6,50.4,29.83,West,264,21.0,32.0,54,0.00,,,0.00,0,Wunderground v.1.15,2013-09-15 01:18:00,
2013-09-14 19:24:00,67.2,50.5,29.82,West,260,21.0,32.0,55,0.00,,,0.00,7,Wunderground v.1.15,2013-09-15 01:24:00,
2013-09-14 19:30:00,66.9,50.2,29.83,WSW,258,21.0,32.0,55,0.00,,,0.00,40,Wunderground v.1.15,2013-09-15 01:30:00,
2013-09-14 19:36:00,66.6,49.9,29.83,West,262,21.0,32.0,55,0.00,,,0.00,69,Wunderground v.1.15,2013-09-15 01:36:00,
2013-09-14 19:42:00,66.3,50.6,29.83,West,264,20.0,32.0,57,0.00,,,0.00,98,Wunderground v.1.15,2013-09-15 01:42:00,
2013-09-14 19:48:00,66.2,51.4,29.84,West,275,19.0,32.0,59,0.00,,,0.00,111,Wunderground v.1.15,2013-09-15 01:48:00,
2013-09-14 19:54:00,65.8,51.1,29.84,West,270,18.0,32.0,59,0.00,,,0.00,114,Wunderground v.1.15,2013-09-15 01:54:00,
2013-09-14 20:00:00,65.6,50.9,29.84,West,280,16.0,25.0,59,0.00,,,0.00,116,Wunderground v.1.15,2013-09-15 02:00:00,
2013-09-14 20:06:00,65.6,50.9,29.84,West,275,16.0,25.0,59,0.00,,,0.00,114,Wunderground v.1.15,2013-09-15 02:06:00,
2013-09-14 20:12:00,65.5,50.3,29.85,West,280,16.0,25.0,58,0.00,,,0.00,114,Wunderground v.1.15,2013-09-15 02:12:00,
2013-09-14 20:18:00,65.5,48.9,29.85,West,275,15.0,25.0,55,0.00,,,0.00,114,Wunderground v.1.15,2013-09-15 02:18:00,
2013-09-14 20:24:00,65.5,51.2,29.85,West,266,15.0,25.0,60,0.00,,,0.00,114,Wunderground v.1.15,2013-09-15 02:24:00,
2013-09-14 20:30:00,65.3,50.6,29.85,West,275,13.0,13.0,59,0.00,,,0.00,113,Wunderground v.1.15,2013-09-15 02:30:00,
2013-09-14 20:36:00,65.3,49.2,29.86,WNW,285,12.0,25.0,56,0.00,,,0.00,113,Wunderground v.1.15,2013-09-15 02:36:00,
2013-09-14 20:42:00,65.2,51.0,29.86,WSW,258,11.0,25.0,60,0.00,,,0.00,111,Wunderground v.1.15,2013-09-15 02:42:00,
2013-09-14 20:50:00,64.7,51.4,29.86,WSW,258,7.0,7.0,62,0.00,,,0.00,109,Wunderground v.1.15,2013-09-15 02:50:00,
2013-09-14 20:58:00,64.0,49.8,29.86,SW,225,7.0,25.0,60,0.00,,,0.00,105,Wunderground v.1.15,2013-09-15 02:58:00,
2013-09-14 21:04:00,63.7,49.5,29.87,SW,231,8.0,25.0,60,0.00,,,0.00,105,Wunderground v.1.15,2013-09-15 03:04:00,
2013-09-14 21:14:00,63.6,49.9,29.87,SW,223,8.0,25.0,61,0.00,,,0.00,104,Wunderground v.1.15,2013-09-15 03:14:00,
2013-09-14 21:20:00,63.5,49.4,29.87,SW,226,8.0,8.0,60,0.00,,,0.00,104,Wunderground v.1.15,2013-09-15 03:20:00,
2013-09-14 21:26:00,63.2,50.0,29.87,SW,233,7.0,25.0,62,0.00,,,0.00,102,Wunderground v.1.15,2013-09-15 03:26:00,
2013-09-14 21:32:00,63.2,49.5,29.87,SW,234,6.0,25.0,61,0.00,,,0.00,100,Wunderground v.1.15,2013-09-15 03:32:00,
2013-09-14 21:38:00,63.4,49.7,29.89,SW,236,5.0,25.0,61,0.00,,,0.00,100,Wunderground v.1.15,2013-09-15 03:38:00,
2013-09-14 21:44:00,63.3,49.6,29.88,WSW,250,5.0,25.0,61,0.00,,,0.00,100,Wunderground v.1.15,2013-09-15 03:44:00,
2013-09-14 21:50:00,63.2,50.0,29.88,WSW,248,5.0,25.0,62,0.00,,,0.00,98,Wunderground v.1.15,2013-09-15 03:50:00,
2013-09-14 21:56:00,63.2,50.4,29.88,NW,322,6.0,25.0,63,0.00,,,0.00,98,Wunderground v.1.15,2013-09-15 03:56:00,
2013-09-14 22:02:00,62.5,48.9,29.88,WNW,299,5.0,25.0,61,0.00,,,0.00,97,Wunderground v.1.15,2013-09-15 04:02:00,
2013-09-14 22:06:00,62.3,48.7,29.88,WNW,299,4.0,25.0,61,0.00,,,0.00,95,Wunderground v.1.15,2013-09-15 04:06:00,
2013-09-14 22:10:00,62.2,49.0,29.88,WNW,299,3.0,25.0,62,0.00,,,0.00,95,Wunderground v.1.15,2013-09-15 04:10:00,
2013-09-14 22:16:00,61.6,48.0,29.90,NW,311,3.0,25.0,61,0.00,,,0.00,93,Wunderground v.1.15,2013-09-15 04:16:00,
2013-09-14 22:18:00,61.4,47.8,29.90,NW,314,3.0,25.0,61,0.00,,,0.00,91,Wunderground v.1.15,2013-09-15 04:18:00,
2013-09-14 22:24:00,61.0,47.4,29.88,NW,314,3.0,25.0,61,0.00,,,0.00,90,Wunderground v.1.15,2013-09-15 04:24:00,
2013-09-14 22:32:00,61.1,47.1,29.90,NW,314,3.0,25.0,60,0.00,,,0.00,88,Wunderground v.1.15,2013-09-15 04:32:00,
2013-09-14 22:42:00,61.2,47.6,29.90,NW,314,2.0,25.0,61,0.00,,,0.00,88,Wunderground v.1.15,2013-09-15 04:42:00,
2013-09-14 22:48:00,60.6,47.5,29.88,NW,314,3.0,25.0,62,0.00,,,0.00,86,Wunderground v.1.15,2013-09-15 04:48:00,
2013-09-14 22:54:00,60.3,47.6,29.90,NW,314,3.0,25.0,63,0.00,,,0.00,84,Wunderground v.1.15,2013-09-15 04:54:00,
2013-09-14 23:00:00,60.2,48.8,29.90,NW,314,3.0,3.0,66,0.00,,,0.00,84,Wunderground v.1.15,2013-09-15 05:00:00,
2013-09-14 23:06:00,59.8,47.6,29.89,NW,314,3.0,25.0,64,0.00,,,0.00,83,Wunderground v.1.15,2013-09-15 05:06:00,
2013-09-14 23:12:00,59.9,46.8,29.90,NW,314,2.0,25.0,62,0.00,,,0.00,83,Wunderground v.1.15,2013-09-15 05:12:00,
2013-09-14 23:18:00,60.1,48.7,29.89,NW,314,3.0,25.0,66,0.00,,,0.00,83,Wunderground v.1.15,2013-09-15 05:18:00,
2013-09-14 23:24:00,59.9,47.3,29.91,NW,314,2.0,25.0,63,0.00,,,0.00,83,Wunderground v.1.15,2013-09-15 05:24:00,
2013-09-14 23:30:00,60.0,47.8,29.90,NW,314,1.0,25.0,64,0.00,,,0.00,81,Wunderground v.1.15,2013-09-15 05:30:00,
2013-09-14 23:36:00,60.3,48.9,29.91,ESE,102,2.0,25.0,66,0.00,,,0.00,83,Wunderground v.1.15,2013-09-15 05:36:00,
2013-09-14 23:42:00,60.5,49.1,29.91,WSW,237,3.0,5.0,66,0.00,,,0.00,84,Wunderground v.1.15,2013-09-15 05:42:00,
2013-09-14 23:48:00,60.8,48.5,29.89,WSW,237,3.0,25.0,64,0.00,,,0.00,86,Wunderground v.1.15,2013-09-15 05:48:00,
2013-09-14 23:54:00,61.2,48.9,29.91,WSW,252,4.0,25.0,64,0.00,,,0.00,88,Wunderground v.1.15,2013-09-15 05:54:00,